TIME,�g��[���C[MJ/h],����[MJ/h],�Ɩ�[MJ/h],�~�[[MJ/h],�①��[MJ/h],��y���[MJ/h],�Ǝ��q��[MJ/h],���̑�[MJ/h],�����G�l���M�[[MJ/h]
2004/8/1 0:00,0.2331,0,0,0.4222,0,0.0301,0.3505,-0.1891,0
2004/8/1 0:15,0.2537,0,0,0.3332,0,0.0324,0.2804,-0.0802,0
2004/8/1 0:30,0.2516,0,0,0.5066,0,0.0324,0.4465,-0.2465,0
2004/8/1 0:45,0.2539,0,0,0.5023,0,0.0324,0.4272,-0.2506,0
2004/8/1 1:00,0.2544,0,0,0.4928,0,0.0324,0.4356,-0.2396,0
2004/8/1 1:15,0.4948,0,0,0.5678,0,0.0325,0.5052,-0.3437,0
2004/8/1 1:30,0.3226,0,0,1.1156,0,0.0325,0.5584,-0.5211,0
2004/8/1 1:45,0.2893,0,0,0.7824,0,0.1025,0.631,0.3574,0
2004/8/1 2:00,0.2549,0,0,0.4334,0,0.2562,0.3701,2.3308,0
2004/8/1 2:15,0.254,0,0,0.3718,0,0.2396,0.3148,3.3813,0
2004/8/1 2:30,0.2527,0,0,0.492,0,0.0769,0.4242,0.4677,0
2004/8/1 2:45,0.2524,0,0,0.5013,0,0.0327,0.4369,-0.3122,0
2004/8/1 3:00,0.2524,0,0,0.484,0,0.0325,0.4288,-0.2994,0
2004/8/1 3:15,0.2533,0,0,0.5848,0,0.0327,0.5224,-0.3918,0
2004/8/1 3:30,0.2546,0,0,0.4882,0,0.0328,0.4238,-0.2843,0
2004/8/1 3:45,0.2549,0,0,0.2854,0,0.0325,0.2261,-0.0894,0
2004/8/1 4:00,0.2527,0,0,0.4972,0,0.0328,0.4293,-0.2938,0
2004/8/1 4:15,0.2523,0,0,0.4938,0,0.0327,0.4352,-0.3033,0
2004/8/1 4:30,0.2544,0,0,0.487,0,0.0328,0.4319,-0.2804,0
2004/8/1 4:45,0.254,0,0,0.5412,0,0.0327,0.4915,-0.3483,0
2004/8/1 5:00,0.2547,0,0,0.484,0,0.0328,0.4048,-0.2772,0
2004/8/1 5:15,0.256,0,0,0.2853,0,0.0328,0.2256,-0.0755,0
2004/8/1 5:30,0.2516,0,0,0.4995,0,0.0327,0.4297,-0.2991,0
2004/8/1 5:45,0.2532,0,0,0.4874,0,0.0327,0.4571,-0.3034,0
2004/8/1 6:00,0.255,0,0,0.4884,0,0.0327,0.4229,-0.2831,0
2004/8/1 6:15,0.2556,0,0,0.5459,0,0.0328,0.4942,-0.3547,0
2004/8/1 6:30,0.2582,0,0,0.4702,0,0.0331,0.413,-0.2786,0
2004/8/1 6:45,0.3522,0,0,0.3792,0,0.0327,0.2321,-0.1871,0
2004/8/1 7:00,0.5338,0,0,0.7716,0,0.0327,0.4419,-0.6019,0
2004/8/1 7:15,0.5478,0,0,0.7919,0,0.0376,0.4215,-0.6123,0
2004/8/1 7:30,0.54,0,0,0.773,0,0.0325,0.4326,-0.6039,0
2004/8/1 7:45,0.5422,0,0,0.8483,0,0.0327,0.4776,-0.6628,0
2004/8/1 8:00,0.5355,0,0,0.7409,0,0.0324,0.4048,-0.5606,0
2004/8/1 8:15,0.5436,0,0,0.5783,0,0.0325,0.2284,-0.392,0
2004/8/1 8:30,0.4206,0,0,1.3176,0,0.0323,0.432,-0.1585,0
2004/8/1 8:45,0.411,0,0,0.7884,0,0.0324,0.4463,-0.6211,0
2004/8/1 9:00,0.4046,0,0,0.8781,0,0.0323,0.5478,-0.6896,0
2004/8/1 9:15,0.4058,0,0,0.8908,0,0.0324,0.542,-0.7104,0
2004/8/1 9:30,0.4031,0,0,0.9444,0.3269,0.032,0.6219,-0.7789,0
2004/8/1 9:45,0.4038,0,0,0.9615,0.3826,0.0323,0.6085,-0.7727,0
2004/8/1 10:00,0.4199,0,0,0.8228,0.1074,0.0321,0.3427,-0.4936,0
2004/8/1 10:15,0.4049,0,0,3.9021,0,0.0324,0.269,-0.3524,0
2004/8/1 10:30,0.409,0,0,3.6613,0,0.0324,0.4373,-0.4523,0
2004/8/1 10:45,0.4065,0,0,4.7549,0,0.0323,0.4346,-0.4319,0
2004/8/1 11:00,0.3737,0,0,0.7957,0,0.0321,0.4473,-0.5049,0
2004/8/1 11:15,0.1172,0,0,0.5888,0,0.0321,0.504,-0.2856,0
2004/8/1 11:30,0.1178,0,0,0.662,0,0.0323,0.5545,-0.3486,0
2004/8/1 11:45,0.1189,0,0,0.393,0,0.0324,0.3084,-0.0788,0
2004/8/1 12:00,0.1181,0,0,0.4019,0,0.0323,0.2938,-0.093,0
2004/8/1 12:15,0.1212,0,0,0.5099,0,0.0374,0.4382,-0.2229,0
2004/8/1 12:30,0.1175,0,0,0.4933,0,0.0324,0.4378,-0.2151,0
2004/8/1 12:45,0.1169,0,0,0.5011,0,0.0324,0.447,-0.2193,0
2004/8/1 13:00,0.1184,0,0,1.0528,0,0.0325,0.5023,-0.5463,0
2004/8/1 13:15,0.1175,0,0,0.9469,0,0.0325,0.5822,-0.5577,0
2004/8/1 13:30,0.1181,0,0,0.6489,0,0.0324,0.5927,-0.4133,0
2004/8/1 13:45,0.1181,0,0,0.6906,0,0.0324,0.6386,-0.4831,0
2004/8/1 14:00,0.1192,0,0,0.3696,0,0.0325,0.3001,-0.1572,0
2004/8/1 14:15,0.1189,0,0,0.3891,0,0.0325,0.3267,-0.0753,0
2004/8/1 14:30,0.1938,0,0,0.5769,0,0.0321,0.4409,-0.3853,0
2004/8/1 14:45,0.2026,0,0,0.5926,0,0.0324,0.4452,-0.4049,0
2004/8/1 15:00,0.3943,0,0,0.8634,0,0.0819,0.573,-0.7272,0
2004/8/1 15:15,0.4163,0,0,0.8711,0,0.0867,0.5661,-0.7468,0
2004/8/1 15:30,0.3855,0,0,0.9076,0,0.0861,0.6232,-0.7642,0
2004/8/1 15:45,0.4327,0,0,0.9636,0,0.0864,0.6229,-0.8279,0
2004/8/1 16:00,0.465,0,0,1.4522,0,0.0857,0.7059,-1.0392,0
2004/8/1 16:15,0.1771,0,0,0.7772,0.1349,0.0812,0.6981,-0.6276,0
2004/8/1 16:30,0.1608,0,0,0.7559,0.3663,0.0783,0.6938,-0.5884,0
2004/8/1 16:45,0.1606,0,0,0.74,0.0272,0.078,0.6739,-0.5949,0
2004/8/1 17:00,0.1606,0,0,0.7312,0,0.078,0.6782,-0.5913,0
2004/8/1 17:15,0.1611,0,0,0.7511,0,0.0782,0.6628,-0.5846,0
2004/8/1 17:30,0.2665,0,0,0.8895,0,0.0783,0.6503,-0.6919,0
2004/8/1 17:45,0.4467,0,0,0.99,0,0.0783,0.5554,-0.7871,0
2004/8/1 18:00,0.3849,0,0,0.9517,0,0.0586,0.5825,-0.7237,0
2004/8/1 18:15,0.2722,0,0,1.014,0,0.0324,0.7098,-0.742,0
2004/8/1 18:30,0.1428,0,0,0.8965,0,0.0359,0.7651,-0.6427,0
2004/8/1 18:45,0.6139,0,0,1.1951,0,0.0793,0.7279,-0.9815,0
2004/8/1 19:00,0.9328,0,0,1.7289,0,0.0782,1.0169,-1.3153,0
2004/8/1 19:15,0.8833,0,0,2.1257,0,0.0783,1.4486,-1.6888,0
2004/8/1 19:30,0.8785,0,0,1.4712,0,0.0782,0.7704,-0.8329,0
2004/8/1 19:45,0.882,0,0,1.2462,0,0.0799,0.7468,-0.679,0
2004/8/1 20:00,0.8634,0,0,1.1965,0,0.0785,0.7309,-0.6489,0
2004/8/1 20:15,0.8506,0,0,1.1229,0,0.0785,0.7504,-0.6265,0
2004/8/1 20:30,0.8695,0,0,1.1366,0,0.0786,0.7217,-0.6296,0
2004/8/1 20:45,0.8695,0,0,1.1107,0,0.0785,0.7125,-0.6094,0
2004/8/1 21:00,0.3408,0,0,0.852,0,0.0789,0.7006,-0.0419,0
2004/8/1 21:15,0.4589,0,0,0.995,0,0.0786,0.7186,-0.5957,0
2004/8/1 21:30,0.5777,0,0,1.1009,0,0.0788,0.6882,-0.902,0
2004/8/1 21:45,0.5459,0,0,1.0583,0,0.0788,0.7,-0.8582,0
2004/8/1 22:00,0.5409,0,0,1.048,0,0.0788,0.6994,-0.8703,0
2004/8/1 22:15,0.3976,0,0,0.932,0,0.0786,0.6781,-0.6193,0
2004/8/1 22:30,0.1571,0,0,0.8251,0,0.0786,0.7157,-0.1979,0
2004/8/1 22:45,0.1572,0,0,0.8149,0,0.0788,0.667,-0.1583,0
2004/8/1 23:00,0.1571,0,0,0.8244,0,0.0786,0.7108,-0.1875,0
2004/8/1 23:15,0.1571,0,0,0.8189,0,0.0785,0.665,-0.1643,0
2004/8/1 23:30,0.2274,0,0,0.8136,0,0.0786,0.6843,-0.1865,0
2004/8/1 23:45,1.5538,0,0,0.4107,0,0.0786,0.2749,0.1207,0
2004/8/2 0:00,1.7041,0,0,0.7955,0,0.0789,0.6484,-0.2614,0
2004/8/2 0:15,1.3833,0,0,0.8159,0,0.0788,0.6631,-0.2474,0
2004/8/2 0:30,0.1583,0,0,0.8421,0,0.0791,0.6978,-0.2438,0
2004/8/2 0:45,0.1583,0,0,0.8281,0,0.0791,0.7037,-0.2101,0
2004/8/2 1:00,0.1584,0,0,0.8214,0,0.0788,0.6623,-0.2104,0
2004/8/2 1:15,0.1596,0,0,0.3695,0,0.0789,0.21,0.2425,0
2004/8/2 1:30,0.1603,0,0,0.5988,0,0.0788,0.4496,0.0449,0
2004/8/2 1:45,0.161,0,0,0.5917,0,0.0789,0.4487,0.0007,0
2004/8/2 2:00,0.2602,0,0,0.7089,0,0.0789,0.5001,-0.0685,0
2004/8/2 2:15,0.518,0,0,1.0151,0,0.0789,0.5976,-0.4549,0
2004/8/2 2:30,0.5154,0,0,1.0382,0,0.0874,0.6219,-0.4823,0
2004/8/2 2:45,0.5376,0,0,1.0581,0,0.0873,0.635,-0.4946,0
2004/8/2 3:00,0.2943,0,0,0.8964,0,0.0808,0.6617,-0.2379,0
2004/8/2 3:15,0.1616,0,0,0.7328,0,0.0789,0.6666,-0.2107,0
2004/8/2 3:30,0.1614,0,0,0.7299,0,0.0788,0.6742,-0.194,0
2004/8/2 3:45,0.1614,0,0,0.7289,0,0.0788,0.6725,-0.2094,0
2004/8/2 4:00,0.1617,0,0,0.7214,0,0.0791,0.6625,-0.2032,0
2004/8/2 4:15,0.162,0,0,0.7089,0,0.0788,0.6631,-0.1866,0
2004/8/2 4:30,0.162,0,0,0.6535,0,0.0789,0.5858,-0.1377,0
2004/8/2 4:45,0.163,0,0,0.6628,0,0.0788,0.616,-0.1332,0
2004/8/2 5:00,0.1614,0,0,0.7908,0,0.0791,0.7266,-0.2722,0
2004/8/2 5:15,0.1611,0,0,0.7656,0,0.0789,0.708,-0.2398,0
2004/8/2 5:30,0.1604,0,0,0.7803,0,0.0788,0.7301,-0.2622,0
2004/8/2 5:45,0.16,0,0,0.775,0,0.0788,0.7128,-0.24,0
2004/8/2 6:00,0.1596,0,0,0.7348,0,0.0788,0.6862,-0.2206,0
2004/8/2 6:15,0.1596,0,0,0.7311,0,0.0789,0.6627,-0.2071,0
2004/8/2 6:30,0.1583,0,0,0.7268,0,0.0786,0.6931,-0.1983,0
2004/8/2 6:45,0.3738,0,0,0.9276,0,0.0788,0.6457,-0.4391,0
2004/8/2 7:00,0.4419,0,0,0.9943,0,0.0788,0.6811,-0.5036,0
2004/8/2 7:15,0.4653,0,0,1.0761,0,0.0786,0.6487,-0.5748,0
2004/8/2 7:30,0.4575,0,0,2.2393,0,0.0791,0.6985,-0.858,0
2004/8/2 7:45,0.4414,0,0,1.1258,0,0.0788,0.68,-0.6107,0
2004/8/2 8:00,0.4454,0,0,1.0162,0,0.0788,0.6955,-0.5979,0
2004/8/2 8:15,0.4524,0,0,1.0161,0,0.0788,0.6673,-0.222,0
2004/8/2 8:30,0.2663,0,0,0.3576,0,0.0789,0.1835,-0.1578,0
2004/8/2 8:45,0.1597,0,0,0.5034,0,0.0786,0.4677,-0.3466,0
2004/8/2 9:00,0.1617,0,0,0.5053,0,0.0786,0.4306,-0.3475,0
2004/8/2 9:15,0.1607,0,0,0.4998,0,0.0789,0.4548,-0.337,0
2004/8/2 9:30,0.161,0,0,0.5,0,0.0789,0.4393,-0.3398,0
2004/8/2 9:45,0.1619,0,0,0.6288,0,0.0788,0.5736,-0.4524,0
2004/8/2 10:00,0.1594,0,0,0.6168,0,0.0786,0.5835,-0.4728,0
2004/8/2 10:15,0.1603,0,0,0.6841,0,0.0789,0.6152,-0.5172,0
2004/8/2 10:30,0.1603,0,0,0.1911,0,0.0789,0.1211,-0.0262,0
2004/8/2 10:45,0.1608,0,0,0.5095,0,0.0789,0.4415,-0.3457,0
2004/8/2 11:00,0.1624,0,0,0.4918,0,0.0788,0.4404,-0.3404,0
2004/8/2 11:15,0.1627,0,0,0.5039,0,0.0788,0.4372,-0.3433,0
2004/8/2 11:30,0.1627,0,0,0.4942,0,0.0788,0.4465,-0.3439,0
2004/8/2 11:45,0.1633,0,0,0.6245,0,0.0788,0.5662,-0.4618,0
2004/8/2 12:00,0.1633,0,0,0.3335,0,0.0788,0.29,-0.174,0
2004/8/2 12:15,0.163,0,0,0.4267,0,0.0786,0.3565,-0.2742,0
2004/8/2 12:30,0.1639,0,0,0.4946,0,0.0786,0.4409,-0.338,0
2004/8/2 12:45,0.1342,0,0,0.4935,0,0.0467,0.4284,-0.3096,0
2004/8/2 13:00,0.1204,0,0,0.4887,0,0.0325,0.4262,-0.2683,0
2004/8/2 13:15,0.121,0,0,0.5982,0,0.0325,0.5515,-0.3845,0
2004/8/2 13:30,0.1204,0,0,0.4392,0,0.0325,0.3636,-0.2277,0
2004/8/2 13:45,0.1215,0,0,0.3465,0,0.0327,0.2971,-0.1476,0
2004/8/2 14:00,0.121,0,0,0.5024,0,0.0325,0.4416,-0.2857,0
2004/8/2 14:15,0.1207,0,0,0.4961,0,0.0324,0.4355,-0.2949,0
2004/8/2 14:30,0.121,0,0,0.4961,0,0.0324,0.4416,-0.2923,0
2004/8/2 14:45,0.1207,0,0,0.5723,0,0.0327,0.5072,-0.3662,0
2004/8/2 15:00,0.1204,0,0,0.5367,0,0.0324,0.4696,-0.3408,0
2004/8/2 15:15,0.1204,0,0,0.2822,0,0.0324,0.2274,-0.0708,0
2004/8/2 15:30,0.121,0,0,0.5014,0,0.0325,0.4497,-0.3046,0
2004/8/2 15:45,0.1207,0,0,0.4992,0,0.0327,0.4277,-0.2871,0
2004/8/2 16:00,0.121,0,0,0.5865,0,0.0324,0.5383,-0.3987,0
2004/8/2 16:15,0.121,0,0,0.6265,0,0.0327,0.5518,-0.4131,0
2004/8/2 16:30,0.121,0,0,0.6574,0,0.0325,0.6018,-0.4429,0
2004/8/2 16:45,0.121,0,0,0.6895,0,0.0327,0.6363,-0.4602,0
2004/8/2 17:00,0.1221,0,0,0.7032,0,0.0327,0.6385,-0.4968,0
2004/8/2 17:15,0.121,0,0,0.7171,0,0.0327,0.6581,-0.5105,0
2004/8/2 17:30,0.1212,0,0,0.7125,0,0.0325,0.6559,-0.5028,0
2004/8/2 17:45,0.121,0,0,0.7203,0,0.0327,0.6542,-0.5083,0
2004/8/2 18:00,0.1207,0,0,0.5766,0,0.0327,0.5347,-0.3622,0
2004/8/2 18:15,0.1198,0,0,0.3799,0,0.0325,0.3069,-0.1734,0
2004/8/2 18:30,0.2485,0,0,0.7914,0,0.0429,0.6231,-0.5607,0
2004/8/2 18:45,0.7026,0,0,1.2557,0,0.0788,0.671,-0.9269,0
2004/8/2 19:00,0.8247,0,0,1.4636,0,0.0783,0.8307,-1.0992,0
2004/8/2 19:15,0.8973,0,0,2.228,0,0.078,1.4678,-1.3681,0
2004/8/2 19:30,0.8832,0,0,5.1597,0,0.078,0.7572,-0.8094,0
2004/8/2 19:45,0.6355,0,0,3.6763,0,0.078,0.7023,-0.3002,0
2004/8/2 20:00,0.6025,0,0,4.8358,0,0.0783,0.6895,-0.2258,0
2004/8/2 20:15,0.8204,0,0,1.0786,0,0.0779,0.6909,-0.5103,0
2004/8/2 20:30,0.8781,0,0,1.1272,0,0.0782,0.6915,-0.5774,0
2004/8/2 20:45,0.8644,0,0,1.093,0,0.0782,0.6574,-0.5194,0
2004/8/2 21:00,0.8728,0,0,1.1104,0,0.0782,0.6804,-0.5567,0
2004/8/2 21:15,0.867,0,0,1.1104,0,0.0783,0.6546,-0.538,0
2004/8/2 21:30,0.7135,0,0,1.1278,0,0.0783,0.6682,-0.5792,0
2004/8/2 21:45,0.6562,0,0,1.0669,0,0.078,0.6516,-0.5279,0
2004/8/2 22:00,0.6712,0,0,0.6384,0,0.078,0.2415,-0.1175,0
2004/8/2 22:15,0.4638,0,0,0.8385,0,0.0782,0.559,-0.1439,0
2004/8/2 22:30,0.3277,0,0,0.7017,0,0.0782,0.5772,-0.201,0
2004/8/2 22:45,0.2935,0,0,0.6935,0,0.0782,0.5525,-0.3696,0
2004/8/2 23:00,0.2938,0,0,0.6952,0,0.0783,0.5656,-0.4848,0
2004/8/2 23:15,0.2965,0,0,0.7016,0,0.0783,0.5432,-0.4779,0
2004/8/2 23:30,0.2929,0,0,0.7343,0,0.078,0.6003,-0.5039,0
2004/8/2 23:45,0.2952,0,0,0.7678,0,0.0783,0.6337,-0.5401,0
2004/8/3 0:00,0.2979,0,0,0.3679,0,0.0782,0.2059,-0.1247,0
2004/8/3 0:15,0.2969,0,0,0.5023,0,0.0782,0.3564,-0.273,0
2004/8/3 0:30,0.2964,0,0,0.5805,0,0.078,0.4326,-0.3416,0
2004/8/3 0:45,0.2964,0,0,0.5757,0,0.0782,0.4437,-0.3479,0
2004/8/3 1:00,0.2962,0,0,0.5757,0,0.0783,0.4183,-0.3424,0
2004/8/3 1:15,0.2978,0,0,0.6756,0,0.0783,0.5394,-0.4451,0
2004/8/3 1:30,0.3001,0,0,0.7262,0,0.0782,0.5639,-0.4851,0
2004/8/3 1:45,0.3018,0,0,0.7474,0,0.078,0.6142,-0.5226,0
2004/8/3 2:00,0.2984,0,0,0.7502,0,0.0782,0.6124,-0.5149,0
2004/8/3 2:15,0.2631,0,0,0.8865,0,0.0426,0.734,-0.6127,0
2004/8/3 2:30,0.2549,0,0,0.8512,0,0.033,0.703,-0.5632,0
2004/8/3 2:45,0.2552,0,0,0.87,0,0.0328,0.734,-0.5764,0
2004/8/3 3:00,0.255,0,0,0.8505,0,0.033,0.6919,-0.5639,0
2004/8/3 3:15,0.256,0,0,0.8302,0,0.0328,0.6912,-0.5436,0
2004/8/3 3:30,0.2562,0,0,0.8116,0,0.033,0.654,-0.5347,0
2004/8/3 3:45,0.2508,0,0,0.8175,0,0.0327,0.6778,-0.5269,0
2004/8/3 4:00,0.2474,0,0,0.7903,0,0.0327,0.6432,-0.5174,0
2004/8/3 4:15,0.2542,0,0,0.8011,0,0.0328,0.6608,-0.5128,0
2004/8/3 4:30,0.2542,0,0,0.797,0,0.0328,0.6562,-0.524,0
2004/8/3 4:45,0.2547,0,0,0.7969,0,0.0328,0.6529,-0.5033,0
2004/8/3 5:00,0.2537,0,0,0.7868,0,0.0328,0.6348,-0.504,0
2004/8/3 5:15,0.2552,0,0,0.7992,0,0.0331,0.6549,-0.5207,0
2004/8/3 5:30,0.2547,0,0,0.4745,0,0.0328,0.3279,-0.1865,0
2004/8/3 5:45,0.2547,0,0,0.5927,0,0.0328,0.4435,-0.3097,0
2004/8/3 6:00,0.2532,0,0,0.643,0,0.0328,0.562,-0.4126,0
2004/8/3 6:15,0.2524,0,0,0.6096,0,0.0328,0.5509,-0.4078,0
2004/8/3 6:30,0.2526,0,0,0.6172,0,0.0328,0.5396,-0.4088,0
2004/8/3 6:45,0.2723,0,0,0.6232,0,0.0325,0.5463,-0.4435,0
2004/8/3 7:00,0.5391,0,0,0.8761,0,0.0328,0.5309,-0.6847,0
2004/8/3 7:15,0.4726,0,0,1.1372,0,0.0377,0.2068,-0.3936,0
2004/8/3 7:30,0.4103,0,0,0.9782,0,0.0325,0.5982,-0.7361,0
2004/8/3 7:45,0.4277,0,0,0.9353,0,0.0325,0.5619,-0.7527,0
2004/8/3 8:00,0.4175,0,0,0.9065,0,0.0324,0.5391,-0.7233,0
2004/8/3 8:15,0.4069,0,0,0.8938,0,0.0323,0.5671,-0.7119,0
2004/8/3 8:30,0.3931,0,0,0.8888,0,0.0325,0.5604,-0.6971,0
2004/8/3 8:45,0.4134,0,0,0.9128,0,0.0791,0.6188,-0.7824,0
2004/8/3 9:00,0.4068,0,0,0.922,0,0.0716,0.6224,-0.7824,0
2004/8/3 9:15,0.4242,0,0,1.0045,0,0.0323,0.6359,-0.7934,0
2004/8/3 9:30,0.3684,0,0,0.8572,0,0.0324,0.5576,-0.3603,0
2004/8/3 9:45,0.1195,0,0,0.2812,0,0.0324,0.2441,-0.0521,0
2004/8/3 10:00,0.1195,0,0,0.6165,0,0.0324,0.5541,-0.413,0
2004/8/3 10:15,0.1207,0,0,0.5792,0,0.0327,0.518,-0.3639,0
2004/8/3 10:30,0.1198,0,0,0.1852,0,0.0323,0.1319,0.0196,0
2004/8/3 10:45,0.1198,0,0,0.4978,0,0.0324,0.4293,-0.2959,0
2004/8/3 11:00,0.1215,0,0,0.4918,0,0.0325,0.4406,-0.2773,0
2004/8/3 11:15,0.121,0,0,0.4933,0,0.0324,0.4271,-0.27,0
2004/8/3 11:30,0.1204,0,0,0.5023,0,0.0327,0.454,-0.2916,0
2004/8/3 11:45,0.1198,0,0,0.5653,0,0.0324,0.5085,-0.3731,0
2004/8/3 12:00,0.1195,0,0,0.2084,0,0.0323,0.1728,-0.0056,0
2004/8/3 12:15,0.1241,0,0,0.4945,0,0.0374,0.4248,-0.2969,0
2004/8/3 12:30,0.1212,0,0,0.4969,0,0.0327,0.4244,-0.2776,0
2004/8/3 12:45,0.1212,0,0,0.4912,0,0.0327,0.4429,-0.284,0
2004/8/3 13:00,0.121,0,0,0.5247,0,0.0325,0.447,-0.3048,0
2004/8/3 13:15,0.1218,0,0,0.6077,0,0.0327,0.5626,-0.4153,0
2004/8/3 13:30,0.1201,0,0,0.2009,0,0.0325,0.1463,0.0135,0
2004/8/3 13:45,0.1201,0,0,0.4925,0,0.0324,0.4412,-0.2903,0
2004/8/3 14:00,0.1192,0,0,0.4985,0,0.0325,0.4308,-0.3024,0
2004/8/3 14:15,0.1181,0,0,0.4899,0,0.0323,0.434,-0.2938,0
2004/8/3 14:30,0.1187,0,0,0.5118,0,0.0325,0.4605,-0.3142,0
2004/8/3 14:45,0.1187,0,0,0.6146,0,0.0324,0.5489,-0.4071,0
2004/8/3 15:00,0.1192,0,0,0.2143,0,0.0323,0.1564,-0.0118,0
2004/8/3 15:15,0.121,0,0,0.5037,0,0.0324,0.4516,-0.2775,0
2004/8/3 15:30,0.1215,0,0,0.4981,0,0.0325,0.4271,-0.29,0
2004/8/3 15:45,0.1212,0,0,0.5098,0,0.0324,0.4524,-0.2958,0
2004/8/3 16:00,0.121,0,0,0.6093,0,0.0325,0.5563,-0.4065,0
2004/8/3 16:15,0.121,0,0,0.6286,0,0.0324,0.574,-0.4235,0
2004/8/3 16:30,0.121,0,0,0.6778,0,0.0324,0.6123,-0.4699,0
2004/8/3 16:45,0.121,0,0,0.6803,0,0.0325,0.6178,-0.4739,0
2004/8/3 17:00,0.121,0,0,0.7201,0,0.0325,0.6651,-0.5174,0
2004/8/3 17:15,0.1207,0,0,0.7206,0,0.0325,0.6634,-0.5057,0
2004/8/3 17:30,0.1181,0,0,0.7034,0,0.0321,0.6396,-0.4991,0
2004/8/3 17:45,0.1189,0,0,0.715,0,0.0324,0.6628,-0.5073,0
2004/8/3 18:00,0.1187,0,0,0.2445,0,0.0321,0.1683,-0.0382,0
2004/8/3 18:15,0.1164,0,0,0.6908,0,0.0324,0.6447,-0.4952,0
2004/8/3 18:30,0.145,0,0,0.7281,0,0.0344,0.625,-0.5046,0
2004/8/3 18:45,0.6716,0,0,1.1801,0,0.0796,0.6823,-0.9217,0
2004/8/3 19:00,0.8166,0,0,1.3866,0,0.0785,0.8434,-1.1053,0
2004/8/3 19:15,0.8889,0,0,2.5047,0,0.0783,1.6227,-2.0192,0
2004/8/3 19:30,0.8647,0,0,1.9323,0,0.0785,1.236,-1.3627,0
2004/8/3 19:45,0.7868,0,0,1.2082,0,0.0785,0.7268,-0.5136,0
2004/8/3 20:00,0.6708,0,0,0.9109,0,0.0783,0.7039,-0.4038,0
2004/8/3 20:15,0.8964,0,0,1.1115,0,0.0783,0.6984,-0.6225,0
2004/8/3 20:30,0.894,0,0,1.113,0,0.0785,0.6888,-0.5975,0
2004/8/3 20:45,0.8853,0,0,1.0963,0,0.0785,0.6931,-0.582,0
2004/8/3 21:00,0.8883,0,0,1.0885,0,0.0785,0.6636,-0.5131,0
2004/8/3 21:15,0.8616,0,0,1.0719,0,0.0796,0.6745,-0.4648,0
2004/8/3 21:30,0.6179,0,0,0.8148,0,0.0785,0.6856,-0.6074,0
2004/8/3 21:45,1.0803,0,0,0.7574,0,0.0782,0.595,-0.3008,0
2004/8/3 22:00,1.8154,0,0,0.2949,0,0.0782,0.1623,0.2608,0
2004/8/3 22:15,3.2494,0,0,0.7636,0,0.0783,0.4326,-0.2529,0
2004/8/3 22:30,1.7649,0,0,0.8569,0,0.0785,0.4575,-0.3332,0
2004/8/3 22:45,0.5325,0,0,0.8333,0,0.0783,0.4303,-0.285,0
2004/8/3 23:00,0.5266,0,0,0.878,0,0.0783,0.5105,-0.3082,0
2004/8/3 23:15,2.0354,0,0,1.4308,0,0.0785,0.5669,-0.5848,0
2004/8/3 23:30,4.4218,0,0,0.7116,0,0.0785,0.5689,-0.1827,0
2004/8/3 23:45,4.3475,0,0,0.8189,0,0.0783,0.7083,-0.3764,0
2004/8/4 0:00,2.6751,0,0,0.7999,0,0.0783,0.7547,-0.4216,0
2004/8/4 0:15,2.3764,0,0,0.7878,0,0.0785,0.7227,-0.4046,0
2004/8/4 0:30,1.6851,0,0,0.7992,0,0.0786,0.7226,-0.3914,0
2004/8/4 0:45,0.7307,0,0,0.7707,0,0.0785,0.7289,-0.3666,0
2004/8/4 1:00,0.2948,0,0,0.7425,0,0.0788,0.6687,-0.3138,0
2004/8/4 1:15,0.2958,0,0,0.74,0,0.0788,0.6942,-0.3221,0
2004/8/4 1:30,0.2959,0,0,0.7376,0,0.0786,0.6602,-0.3113,0
2004/8/4 1:45,0.2966,0,0,0.732,0,0.0785,0.6895,-0.3041,0
2004/8/4 2:00,0.2982,0,0,0.7335,0,0.0788,0.6637,-0.2988,0
2004/8/4 2:15,0.2982,0,0,0.7268,0,0.0785,0.6705,-0.2868,0
2004/8/4 2:30,0.2971,0,0,0.7245,0,0.0786,0.6584,-0.3021,0
2004/8/4 2:45,0.2979,0,0,0.7363,0,0.0788,0.672,-0.2791,0
2004/8/4 3:00,0.2978,0,0,0.4908,0,0.0788,0.446,-0.0671,0
2004/8/4 3:15,0.2961,0,0,0.2976,0,0.0785,0.2216,0.14,0
2004/8/4 3:30,0.2961,0,0,0.498,0,0.0786,0.4395,-0.0808,0
2004/8/4 3:45,0.2962,0,0,0.5066,0,0.0786,0.4486,-0.0874,0
2004/8/4 4:00,0.2981,0,0,0.504,0,0.0786,0.4306,-0.0696,0
2004/8/4 4:15,0.2735,0,0,0.5535,0,0.0528,0.4906,-0.0936,0
2004/8/4 4:30,0.2543,0,0,0.6313,0,0.0327,0.5717,-0.1505,0
2004/8/4 4:45,0.2547,0,0,0.4162,0,0.0328,0.3557,0.0691,0
2004/8/4 5:00,0.2549,0,0,0.3617,0,0.033,0.2856,0.129,0
2004/8/4 5:15,0.2537,0,0,0.5013,0,0.0328,0.4434,-0.0258,0
2004/8/4 5:30,0.2524,0,0,0.5092,0,0.0325,0.4442,-0.0253,0
2004/8/4 5:45,0.2529,0,0,0.4912,0,0.0325,0.4408,-0.0046,0
2004/8/4 6:00,0.2529,0,0,0.5851,0,0.0327,0.507,-0.1004,0
2004/8/4 6:15,0.2503,0,0,0.5659,0,0.0328,0.5089,-0.0848,0
2004/8/4 6:30,0.2508,0,0,0.2475,0,0.0325,0.1878,0.2331,0
2004/8/4 6:45,0.249,0,0,0.4977,0,0.0327,0.4379,-0.0212,0
2004/8/4 7:00,0.252,0,0,0.502,0,0.0325,0.4458,-0.0419,0
2004/8/4 7:15,0.2998,0,0,0.5897,0,0.0376,0.4241,-0.0982,0
2004/8/4 7:30,0.4215,0,0,0.827,0,0.0325,0.4645,-0.3833,0
2004/8/4 7:45,0.4218,0,0,0.9189,0,0.0325,0.5648,-0.4519,0
2004/8/4 8:00,0.427,0,0,0.5139,0,0.0325,0.1575,-0.0634,0
2004/8/4 8:15,0.4212,0,0,0.8081,0,0.0327,0.4297,-0.341,0
2004/8/4 8:30,0.4046,0,0,0.7788,0,0.0325,0.4566,-0.3093,0
2004/8/4 8:45,0.3956,0,0,0.7813,0,0.0328,0.4274,-0.3076,0
2004/8/4 9:00,0.4172,0,0,1.3762,0,0.0324,0.4743,-0.3714,0
2004/8/4 9:15,0.4609,0,0,1.0655,0,0.0788,0.5928,-0.5524,0
2004/8/4 9:30,0.4595,0,0,1.047,0,0.078,0.6276,-0.5751,0
2004/8/4 9:45,0.3125,0,0,0.8888,0.239,0.0782,0.6186,-0.4617,0
2004/8/4 10:00,0.1577,0,0,1.2142,0.3717,0.0779,0.6546,-0.269,0
2004/8/4 10:15,0.1554,0,0,3.6353,0.3007,0.078,0.2362,0.5354,0
2004/8/4 10:30,0.158,0,0,3.8915,0.42,0.078,0.5946,0.2125,0
2004/8/4 10:45,0.1587,0,0,5.1646,0.2395,0.0783,0.5892,-0.329,0
2004/8/4 11:00,0.1642,0,0,0.6703,0,0.0783,0.5584,-0.4365,0
2004/8/4 11:15,0.1621,0,0,0.6775,0,0.0783,0.5881,-0.4686,0
2004/8/4 11:30,0.1617,0,0,0.6722,0,0.078,0.57,-0.4869,0
2004/8/4 11:45,0.1606,0,0,0.7285,0,0.078,0.6529,-0.5417,0
2004/8/4 12:00,0.1596,0,0,0.5589,0,0.0779,0.4458,-0.3624,0
2004/8/4 12:15,0.162,0,0,0.3244,0,0.0783,0.2579,-0.1624,0
2004/8/4 12:30,0.1613,0,0,0.5093,0,0.0782,0.446,-0.3498,0
2004/8/4 12:45,0.1596,0,0,0.507,0,0.0782,0.4488,-0.3515,0
2004/8/4 13:00,0.1594,0,0,0.5076,0,0.0782,0.4632,-0.3452,0
2004/8/4 13:15,0.1623,0,0,0.5815,0,0.0783,0.5122,-0.4134,0
2004/8/4 13:30,0.1616,0,0,0.6183,0,0.0783,0.5674,-0.4769,0
2004/8/4 13:45,0.1624,0,0,0.6781,0,0.0783,0.6123,-0.5116,0
2004/8/4 14:00,0.1619,0,0,0.3432,0,0.0783,0.2792,-0.1801,0
2004/8/4 14:15,0.1627,0,0,0.4379,0,0.0786,0.3842,-0.289,0
2004/8/4 14:30,0.1633,0,0,0.5017,0,0.078,0.4486,-0.3324,0
2004/8/4 14:45,0.1621,0,0,0.5113,0,0.0783,0.447,-0.358,0
2004/8/4 15:00,0.1611,0,0,0.5016,0,0.0782,0.4535,-0.3423,0
2004/8/4 15:15,0.1607,0,0,0.6096,0,0.0783,0.5363,-0.4533,0
2004/8/4 15:30,0.163,0,0,0.6319,0,0.0783,0.5756,-0.462,0
2004/8/4 15:45,0.1345,0,0,0.6726,0,0.0482,0.6237,-0.49,0
2004/8/4 16:00,0.1212,0,0,0.6929,0,0.0327,0.6407,-0.4818,0
2004/8/4 16:15,0.1218,0,0,0.7206,0,0.0327,0.6515,-0.5167,0
2004/8/4 16:30,0.1227,0,0,0.7328,0,0.0327,0.6847,-0.5446,0
2004/8/4 16:45,0.1238,0,0,0.7279,0,0.0327,0.6617,-0.5193,0
2004/8/4 17:00,0.121,0,0,0.7263,0,0.0325,0.6605,-0.5139,0
2004/8/4 17:15,0.1215,0,0,0.751,0,0.0325,0.6697,-0.5151,0
2004/8/4 17:30,0.3463,0,0,0.9888,0,0.0635,0.6752,-0.78,0
2004/8/4 17:45,0.4522,0,0,1.0103,0,0.0782,0.6682,-0.8711,0
2004/8/4 18:00,0.4444,0,0,1.0204,0,0.078,0.6801,-0.8764,0
2004/8/4 18:15,0.4478,0,0,1.0107,0,0.078,0.6735,-0.8804,0
2004/8/4 18:30,0.4527,0,0,1.0225,0,0.078,0.6715,-0.8924,0
2004/8/4 18:45,0.4437,0,0,1.0246,0,0.0782,0.6755,-0.8785,0
2004/8/4 19:00,0.438,0,0,1.0044,0,0.0782,0.6709,-0.8594,0
2004/8/4 19:15,0.5489,0,0,1.0202,0,0.0782,0.6804,-0.8911,0
2004/8/4 19:30,0.7835,0,0,1.0822,0,0.078,0.679,-0.8806,0
2004/8/4 19:45,0.8359,0,0,1.8962,0,0.0782,1.3316,-1.3905,0
2004/8/4 20:00,0.8879,0,0,1.8883,0,0.0806,1.2552,-1.0545,0
2004/8/4 20:15,0.8446,0,0,1.1828,0,0.084,0.5797,-0.3321,0
2004/8/4 20:30,2.4396,0,0,0.6935,0,0.0785,0.5521,-0.1364,0
2004/8/4 20:45,6.5596,0,0,0.9141,0,0.0785,0.6709,-0.4077,0
2004/8/4 21:00,6.0962,0,0,1.1536,0,0.0782,0.7587,-0.6602,0
2004/8/4 21:15,1.5648,0,0,1.1959,0,0.0786,0.757,-0.489,0
2004/8/4 21:30,0.4954,0,0,4.0215,0,0.0785,0.753,-0.1452,0
2004/8/4 21:45,0.3213,0,0,3.7876,0,0.0786,0.7442,-0.0888,0
2004/8/4 22:00,0.4641,0,0,4.0755,0,0.0788,0.7377,-0.5828,0
2004/8/4 22:15,0.5927,0,0,1.1392,0,0.0785,0.7115,-0.7392,0
2004/8/4 22:30,0.5665,0,0,1.0947,0,0.0785,0.7137,-0.7052,0
2004/8/4 22:45,0.5626,0,0,1.0655,0,0.0786,0.7006,-0.6965,0
2004/8/4 23:00,0.4368,0,0,0.9716,0,0.0605,0.7027,-0.557,0
2004/8/4 23:15,0.2494,0,0,0.79,0,0.0324,0.6935,-0.3341,0
2004/8/4 23:30,0.2503,0,0,0.7701,0,0.0325,0.705,-0.3444,0
2004/8/4 23:45,0.2501,0,0,0.7442,0,0.0325,0.671,-0.3192,0
2004/8/5 0:00,0.2447,0,0,0.7495,0,0.0323,0.6951,-0.3331,0
2004/8/5 0:15,0.248,0,0,0.7488,0,0.0327,0.686,-0.3273,0
2004/8/5 0:30,0.2516,0,0,0.7331,0,0.0325,0.6756,-0.3064,0
2004/8/5 0:45,0.2546,0,0,0.7566,0,0.0328,0.6784,-0.322,0
2004/8/5 1:00,0.2517,0,0,0.732,0,0.0327,0.7013,-0.309,0
2004/8/5 1:15,0.2513,0,0,0.7492,0,0.0327,0.6682,-0.3244,0
2004/8/5 1:30,0.2524,0,0,0.742,0,0.0325,0.6738,-0.3158,0
2004/8/5 1:45,0.254,0,0,0.521,0,0.0327,0.4612,-0.0935,0
2004/8/5 2:00,0.2552,0,0,0.3396,0,0.0328,0.2678,0.0847,0
2004/8/5 2:15,0.2556,0,0,0.5086,0,0.0328,0.4661,-0.0838,0
2004/8/5 2:30,0.2533,0,0,0.519,0,0.0327,0.438,-0.0901,0
2004/8/5 2:45,0.2533,0,0,0.5149,0,0.0325,0.4382,-0.0932,0
2004/8/5 3:00,0.254,0,0,0.5874,0,0.0327,0.5233,-0.1344,0
2004/8/5 3:15,0.2523,0,0,0.6312,0,0.0327,0.5592,-0.2118,0
2004/8/5 3:30,0.2494,0,0,0.6784,0,0.0325,0.6129,-0.257,0
2004/8/5 3:45,0.248,0,0,0.6876,0,0.0327,0.6314,-0.271,0
2004/8/5 4:00,0.2481,0,0,0.7124,0,0.0325,0.6483,-0.2916,0
2004/8/5 4:15,0.2497,0,0,0.722,0,0.0325,0.6576,-0.3007,0
2004/8/5 4:30,0.2507,0,0,0.254,0,0.0325,0.1914,0.1644,0
2004/8/5 4:45,0.2506,0,0,0.483,0,0.0325,0.4236,-0.0612,0